THOR ABLESTAR DEB, 545

Orbit data source: Space-Track

THOR ABLESTAR DEB, 545 is space debris in LEO originally from a launch on Thu, 29 Jun 1961 UTC launched from the Air Force Eastern Test Range (AFETR). Debris objects in space refer to the collection of defunct objects orbiting the Earth. Examples of debris include non-operational satellites, rocket bodies, and fragments generated from explosions, collisions, or faulty payload assembly.

Loading next visibility...
Identifier
545, 1961-015GE
Orbit
LEO
Country
Flag of USUS
Related business
Manufacturer
Unknown
Mission
Spacecraft
Bus & Motor
Unknown
Mass
Unknown
Launch date (UTC)
1961-06-29 (65 years ago)
Launch vehicle
Unknown
Launch site
Air Force Eastern Test Range (AFETR)
Object type
Payload
Rocket body
Debris
Shape & HBR
Unknown shape, 0.1 m
Radar Cross Section
Medium (>0.1 m² and <1 m²)

Expand to show TLE details & history
Last TLE update: 1 day ago

TLE from 1 day ago
0 THOR ABLESTAR DEB
1 00545U 61015GE  26206.02347762  .00000343  00000-0  42352-3 0  9993
2 00545  67.2302 186.7957 0154964  16.7007 343.9086 13.71107926235470
Epoch: 2026-07-25T00:33Z
TLE epoch observation values (Epoch: 2026-07-25T00:33:48.466Z)
Latitude
-0.00001°
Longitude
-124.39796°
Altitude
888.022 km
Speed
7.463 km/s
True Right ascension
12h 27m 10s
True Declination
0° 00' 00"
Sunlit
Object was in daylight at epoch
Visualization orbit readout
Latitude
Unknown
Longitude
Unknown
Altitude
Unknown
Speed
Unknown
Apparent Right ascension
Unknown
Apparent Declination
Unknown
Sunlit
N/A
Visualization observer readout
Local Sidereal Time
01:13:41
Azimuth
Unknown
Elevation
Unknown
Doppler factor
Unknown
Orbital elements
Apogee altitude
1,108.197 km
Perigee altitude
879.715 km
Semi-major axis
7,372.093 km
Eccentricity
0.0155
Inclination
67.2302°
RAAN
186.7957°
Arg. of periapsis
16.7007°
True anomaly
343.40709°
Mean anomaly
343.9086°
Eccentric anomaly
343.65879°
Mean motion
3.42892 °/min
Orbital period
104.99 mins
BSTAR
0.00042352
Loading maneuver chart data...
Computing Atmospheric mass density...
Loading historical data...
Loading historical data...
Loading historical data...
Loading historical data...
Loading historical data...
Loading historical data...
Loading historical data...

Documentation

Showing up to 5 results
|